www.pogodaiklimat.ru

Погода и климат >> Архив погоды >> Индия >> Джаркханд >> Ранчи


ПОГОДА в Ранчи

  • Прогноз погоды в Ранчи
  • Монитор погоды в Ранчи

АРХИВ ПОГОДЫ в Ранчи

Время (UTC), дата Ветер
(напр.,м/с)
 
Видим.   Явления Облачность Т
(С)
Тd
(С)
f
(%)
Тe
(С)
Тes
(С)
Комфортность P
(гПа)
Po
(гПа)
Тmin
(С)
Tmax
(С)
R
(мм)
R24
(мм)
S
(см)
12 14.04 С 3 4000 м 4/0
[Ac trans]
+36.0 +9.2 20 +35 +35 очень
жарко
1003.0 934.2 +38.6
15 14.04 штиль 0 4000 м мгла 3/0
[Cu med, cong Ac trans]
+30.0 +14.5 39 +32 +32 жарко 1006.3 936.0
18 14.04 штиль 0 4000 м мгла ясно +28.4 +13.5 40 +30 +30 жарко 1006.8 936.2
21 14.04 штиль 0 2000 м мгла ясно +27.6 +13.3 41 +29 +29 жарко 1005.4 934.9
00 15.04 штиль 0 2000 м мгла ясно +26.0 +12.8 44 +28 +28 жарко 1006.8 935.5
03 15.04 Ю 3 4000 м мгла ясно +31.6 +13.3 33 +33 +41 жарко 1007.3 937.3 +24.4
06 15.04 С 2 4000 м мгла ясно +37.0 +13.0 24 +37 +58 опасность
солнечного
удара
1006.1 937.2
09 15.04 СЗ 3 4000 м 6/6 600 м
[Sc diur, vesp]
+38.8 +13.5 22 +39 +44 очень
жарко
1002.5 934.4
12 15.04 ЮЗ 2 4000 м мгла 6/4 600 м
[Cb calv Ac trans]
+35.6 +12.0 24 +35 +36 очень
жарко
1001.3 933.0 +39.2
15 15.04 штиль 0 4000 м мгла 6/3
[Sc Ac trans]
+31.2 +13.2 33 +32 +32 жарко 1005.4 935.5
18 15.04 С 2 4000 м мгла ясно +28.0 +13.8 42 +30 +30 жарко 1006.9 936.1
21 15.04 штиль 0 2000 м мгла ясно +27.2 +13.6 43 +29 +29 жарко 1005.5 934.8
00 16.04 ЮЗ 3 4000 м мгла 4/0
[Ac trans]
+26.0 +13.2 45 +28 +28 жарко 1006.9 935.7
03 16.04 З 2 4000 м мгла 6/5 600 м
[Sc Ac trans]
+30.4 +14.6 38 +32 +37 жарко 1008.7 938.4 +24.4
06 16.04 С 2 4000 м мгла 8/5 600 м
[Sc Ac trans]
+33.6 +14.1 31 +35 +42 душно 1007.5 938.0
09 16.04 С 3 4000 м мгла 5/3 600 м
[Sc Ac trans]
+36.4 +11.5 22 +36 +42 очень
жарко
1004.1 935.4
12 16.04 С 3 4000 м мгла 8/4 600 м
[Sc Ac trans]
+33.4 +11.5 26 +33 +33 жарко 1004.6 935.2 +36.8
15 16.04 С 2 4000 м мгла ясно +29.0 +13.5 39 +31 +31 жарко 1008.3 937.6
18 16.04 С 2 4000 м мгла ясно +27.0 +12.9 42 +29 +29 жарко 1009.2 938.0
21 16.04 С 2 4000 м мгла ясно +25.8 +12.5 44 +28 +28 жарко 1008.7 937.2
00 17.04 штиль 0 2000 м мгла 4/0
[Ac trans]
+23.4 +15.0 59 +27 +27 душно 1010.1 938.1
03 17.04 СВ 3 2000 м мгла 6/6 600 м
[Sc diur, vesp]
+28.0 +16.2 49 +31 +35 душно 1011.7 940.6 +22.5
06 17.04 С 5 2000 м мгла {гроза, дождь} 6/3 600 м
[Sc Ac trans]
+27.2 +15.9 50 +30 +36 душно 1012.8 941.5 0.0
09 17.04 С 3 4000 м мгла ясно +29.4 +14.9 41 +32 +42 душно 1009.6 939.1 0.0
12 17.04 СВ 3 4000 м мгла 5/3 600 м
[Sc Ac trans]
+27.0 +14.1 45 +29 +30 жарко 1009.9 938.7 +30.2 0.0
15 17.04 СВ 2 4000 м мгла ясно +24.2 +14.9 56 +27 +27 жарко 1012.1 940.2 0.0
18 17.04 штиль 0 4000 м мгла 3/0
[Ac trans]
+22.4 +15.3 64 +26 +26 жарко 1011.6 939.2 0.0
21 17.04 штиль 0 4000 м мгла 6/4 600 м
[Cb calv Ac trans]
+22.0 +17.0 73 +26 +26 душно 1010.3 937.8 0.0
00 18.04 СВ 1 4000 м гроза без осадков 8/5 600 м
[Cb cap Ac trans]
+21.2 +15.0 68 +24 +24 комфорт 1010.7 938.2 0.0
03 18.04 СВ 2 4000 м мгла {гроза} 8/5 600 м
[Sc Ac trans]
+22.6 +17.0 71 +27 +31 душно 1013.4 941.0 +18.5 2
06 18.04 Ю 2 4000 м мгла 4/4 600 м
[Sc]
+30.2 +15.9 42 +33 +46 душно 1010.5 940.1
09 18.04 Ю 2 4000 м мгла 5/5 600 м
[Cb calv]
+34.4 +15.2 32 +36 +43 душно 1005.9 936.7
12 18.04 СВ 2 4000 м мгла 5/3 600 м
[Sc Ac trans]
+29.6 +19.8 56 +36 +36 очень
душно
1006.5 936.2 +34.7
15 18.04 З 7 2000 м гроза, ливневой дождь 9/6 540 м
[Cb cap Ac trans]
+27.2 +15.5 49 +30 +30 душно 1009.5 938.5 1
18 18.04 штиль 0 2000 м мгла {гроза, дождь} 6/4 600 м
[Sc Ac trans]
+20.6 +18.4 87 +24 +24 комфорт 1010.1 937.4 8
21 18.04 Ю 3 2000 м гроза, ливневой дождь 9/6 540 м
[Cb cap Ac trans]
+20.2 +18.3 89 +24 +24 комфорт 1011.0 938.3 10
00 19.04 штиль 0 2000 м мгла {гроза, дождь} 5/3 600 м
[Sc Ac trans]
+19.0 +18.1 95 +21 +21 комфорт 1010.2 937.0 11
03 19.04 С 1 2000 м мгла {гроза} 6/5 600 м
[Cb calv Ac trans]
+21.8 +18.7 83 +27 +32 душно 1012.1 939.5 +18.5 11
06 19.04 Ю 2 4000 м мгла {гроза} 8/4 600 м
[Sc Ac trans]
+24.8 +19.1 71 +30 +37 душно 1011.3 939.4 0.0
09 19.04 ЮВ 1 4000 м мгла ясно +29.6 +17.1 47 +33 +49 душно 1005.9 935.8 11
12 19.04 С 4 4000 м гроза, ливневой дождь 8/5 600 м
[Cb cap Ac trans]
+24.6 +15.7 58 +28 +28 душно 1007.2 935.6 +30.7 0.0
15 19.04 Ю 2 4000 м мгла {гроза} 8/5 600 м
[Cb calv Ac trans]
+20.8 +15.7 73 +25 +25 комфорт 1010.3 937.4 3
18 19.04 Ю 2 4000 м мгла ясно +19.8 +16.3 80 +23 +23 комфорт 1009.4 936.6 3
21 19.04 Ю 2 4000 м мгла ясно +19.0 +16.4 85 +21 +21 комфорт 1008.8 935.7 3
00 20.04 ЮЗ 1 4000 м мгла ясно +18.8 +15.9 83 +21 +21 комфорт 1019.0 935.9 3
03 20.04 ЮЗ 3 4000 м мгла ясно +24.4 +17.6 66 +28 +37 душно 1009.4 937.7 +18.9 3
06 20.04 ЮЗ 2 4000 м мгла ясно +30.2 +17.4 46 +34 +57 опасность
солнечного
удара
1006.8 936.7
09 20.04 З 3 4000 м мгла 6/6 600 м
[Sc diur, vesp]
+32.8 +12.9 30 +33 +38 жарко 1003.5 934.0
12 20.04 Ю 2 4000 м мгла 5/5 600 м
[Sc diur, vesp]
+28.4 +13.9 41 +30 +31 жарко 1003.5 933.2 +33.5
15 20.04 ЮЗ 2 4000 м мгла 3/0
[Ac trans]
+25.4 +15.2 53 +28 +28 жарко 1005.5 934.3
18 20.04 З 1 4000 м мгла 3/0
[Ac trans]
+24.4 +17.3 65 +28 +28 душно 1005.9 934.5
21 20.04 штиль 0 4000 м мгла ясно +22.8 +17.5 72 +28 +28 душно 1005.1 933.2
00 21.04 штиль 0 4000 м мгла ясно +21.0 +17.2 79 +25 +25 комфорт 1006.4 934.0
03 21.04 Ю 2 4000 м мгла 3/0
[Ac trans]
+27.6 +17.5 54 +32 +41 очень
душно
1006.4 935.6
06 21.04 ЮЗ 3 4000 м мгла 4/4 600 м
[Sc diur, vesp]
+32.6 +16.8 39 +36 +46 очень
душно
1005.0 935.4
09 21.04 З 2 4000 м гроза, ливневой дождь 9/6
[Cb cap Ac trans]
+28.8 +15.7 45 +32 +35 душно 1003.7 933.4 0.0

 

Местоположение метеостанции Ранчи (Джаркханд, Индия): широта 23.32 долгота 85.32 высота над уровнем моря 652 м.

В архиве по умолчанию представлена погода в Ранчи за последнюю неделю. Архивные данные за месяц целиком и за предыдущие месяцы, начиная с января 2011 года, Вы можете получить, выбрав интересующий диапазон дат из раскрывающегося списка и нажав кнопку "Ввод!".


*Определитесь, кто Вы:
робот инопланетянин человек

Внимание! Время в таблицах - всемирное. Для получения местного времени необходимо прибавить поправку, которая равна 5.5 ч.

Смотрите также архив погоды в соседних городах и на ближайших метеорологических станциях:

Погода в Чайбасе (Джаркханд, Индия) (100 км)
Погода в Джамшедпуре (Джаркханд, Индия) (104 км)
Погода в Пурулии (Западная Бенгалия, Индия) (112 км)
Погода в Далтонгандже (Джаркханд, Индия) (151 км)
Погода в Гае (Бихар, Индия) (163 км)
Погода в Асансоле (Западная Бенгалия, Индия) (174 км)
Погода в Банкуре (Западная Бенгалия, Индия) (177 км)
Погода в Сундаргархе (Орисса, Индия) (188 км)
Погода в Кендуджхаре (Орисса, Индия) (190 км)
Погода в Джхарсугуде (Орисса, Индия) (201 км)

Пояснения к столбцам:

Ветер - указаны скорость ветра в м/с - средняя за 10 мин, порывы в срок и между сроками (в фигурных скобках) и направление, откуда дует ветер: С - северный, СВ - северо-восточный, В - восточный, ЮВ - юго-восточный, Ю - южный, ЮЗ - юго-западный, З - западный, СЗ - северо-западный.
Видимость - горизонтальная дальность видимости в метрах или километрах. При видимости от 1 до 10 км при отсутствии осадков обычно наблюдается дымка, при ухудшении видимости до 1 км и менее - туман. В сухую погоду видимость может ухудшаться дымом, пылью или мглою.
Явления - указаны атмосферные явления, наблюдавшиеся в срок или в последний час перед сроком; фигурными скобками обозначены явления, наблюдавшиеся между сроками (за 1-3 часа до срока); квадратными скобками обозначены град или гололедные отложения с указанием их диаметра в мм.
Облачность - указаны через наклонную черту общая и нижняя облачность в баллах и высота нижней границы облаков в метрах; квадратными скобками обозначены формы облаков: Ci - перистые, Cs - перисто-слоистые, Cc - перисто-кучевые, Ac - высококучевые, As - высокослоистые, Sc - слоисто-кучевые, Ns - слоисто-дождевые, Cu - кучевые, Cb - кучево-дождевые. Подробнее классификацию облаков см. в Атласе облаков (PDF).
T - Температура воздуха - температура, измеренная на высоте 2 м над землей.
Td - Температура точки росы - температура, при понижении до которой содержащийся в воздухе водяной пар достигнет насыщения.
f - Относительная влажность воздуха - влажноcть воздуха, измеренная на высоте 2 м над землей.
Te - Эффективная температура - температура, которую ощущает одетый по сезону человек в тени. Характеристика душности погоды. При расчете учитывается влияние влажности воздуха и скорости ветра на теплоощущения человека.
Tes - Эффективная температура на солнце - температура, которую ощущает человек, с поправкой на солнечный нагрев. Характеристика знойности погоды. Зависит от высоты солнца над горизонтом, облачности и скорости ветра. Ночью, в пасмурную погоду, а также при ветре 12 м/с и более поправка равна нулю.
P - Атмосферное давление - приведенное к уровню моря атмосферное давление.
Po - Атмосферное давление - измеренное на уровне метеостанции атмосферное давление.
Tmin - Минимальная температура - минимум температуры воздуха на высоте 2 м над землей.
Tmax - Максимальная температура - максимум температуры воздуха на высоте 2 м над землей.
R - Количество осадков - Количество выпавших осадков за период времени, мм. При наведении курсора мыши на число - период времени, за который выпало указанное количество осадков.
R24 - Количество осадков - Количество выпавших осадков за 24 часа, мм.
S - Снежный покров - Высота снежного покрова, см. При наведении курсора мыши на число - состояние снежного покрова и степень покрытия местности в баллах.